Tracking 18840 objects as of 18-November-2017
HD Live streaming from Space Station
objects crossing your sky now

KAZEOSAT 2

Track KAZEOSAT 2 now!
10-day predictions
KAZEOSAT 2 is classified as:


NORAD ID: 40010
Int'l Code: 2014-033A
Perigee: 617.6 km
Apogee: 642.2 km
Inclination: 97.9 °
Period: 97.2 minutes
Semi major axis: 7000 km
RCS: Unknown
Launch date: June 19, 2014
Source: Kazakhstan (KAZ)
Launch site: Orenburg, Russia (OREN)
aabbcc
Your satellite tracking list
Your tracking list is empty




NASA's NSSDC Master Catalog

Two Line Element Set (TLE):
1 40010U 14033A   17322.19363300  .00000084  00000-0  17213-4 0  9996
2 40010  97.8808 221.6521 0017557 130.6911 229.5845 14.82079920184754
Source of the keplerian elements: AFSPC